FW4043 Weather Reports


time (UTC)temp
C
wind
direction
speed
KPH
gust
KPH
rain 1hr
cm
rain 24hr
cm
rain mn
cm
humidity
%
barometer
mb
20260506201531 28 136 12.9 17.7 0.00 0.00 0.00 88 1010.3
20260506200021 28 146 9.7 20.9 0.00 0.00 0.00 88 1010.4
20260506194528 28 234 11.3 24.1 0.00 0.00 0.00 89 1010.5
20260506193026 27 176 11.3 19.3 0.00 0.00 0.00 89 1010.8
20260506191540 27 174 16.1 25.7 0.00 0.00 0.00 88 1010.8
20260506190036 27 140 14.5 20.9 0.00 0.00 0.00 89 1011.1
20260506184538 27 198 8.0 16.1 0.00 0.00 0.00 90 1011.3
20260506183057 27 180 11.3 20.9 0.00 0.00 0.00 89 1011.4
20260506181542 27 159 8.0 17.7 0.00 0.00 0.00 90 1011.7
20260506180053 27 148 11.3 16.1 0.00 0.00 0.00 90 1011.9
20260506174550 27 145 8.0 17.7 0.00 0.00 0.00 91 1012.0
20260506173058 26 165 6.4 14.5 0.00 0.00 0.00 92 1012.1
20260506171502 26 150 11.3 16.1 0.00 0.00 0.00 92 1012.2
20260506170114 26 192 8.0 17.7 0.00 0.00 0.00 92 1012.5
20260506164542 26 170 9.7 17.7 0.00 0.00 0.00 92 1012.3
20260506163046 25 130 12.9 17.7 0.00 0.00 0.00 93 1012.1
20260506161542 25 140 9.7 17.7 0.00 0.00 0.00 93 1012.0
20260506160043 25 135 9.7 12.9 0.00 0.00 0.00 93 1012.1
20260506154550 25 125 9.7 14.5 0.00 0.00 0.00 93 1012.0
20260506153050 25 128 11.3 14.5 0.00 0.00 0.00 93 1011.8
20260506151550 25 156 11.3 16.1 0.00 0.00 0.00 93 1011.8
20260506150100 25 150 9.7 16.1 0.00 0.00 0.00 93 1011.5
20260506144607 25 128 11.3 17.7 0.00 0.00 0.00 93 1011.1
20260506144501 25 119 9.7 17.7 0.00 0.00 0.00 93 1011.0
20260506143015 25 136 11.3 14.5 0.00 0.00 0.00 93 1011.0
20260506141510 25 144 9.7 16.1 0.00 0.00 0.00 93 1011.2
20260506140007 25 136 9.7 12.9 0.00 0.00 0.00 93 1011.2
20260506134512 24 119 9.7 14.5 0.00 0.00 0.00 93 1011.3
20260506133012 24 146 8.0 14.5 0.00 0.00 0.00 93 1011.2
20260506131515 24 132 9.7 14.5 0.00 0.00 0.00 93 1011.3
20260506130021 23 137 9.7 14.5 0.00 0.00 0.00 93 1011.2
20260506124525 23 132 9.7 12.9 0.00 0.00 0.00 93 1011.2
20260506123031 23 134 9.7 14.5 0.00 0.00 0.00 93 1011.0
20260506121528 23 142 9.7 14.5 0.00 0.00 0.00 93 1011.0
20260506120041 23 128 11.3 14.5 0.00 0.00 0.00 93 1010.9
20260506114535 23 136 9.7 12.9 0.00 0.00 0.00 93 1010.8
20260506113042 23 132 9.7 12.9 0.00 0.00 0.00 92 1010.6
20260506111545 23 127 8.0 12.9 0.00 0.00 0.00 92 1010.4
20260506110047 23 119 8.0 12.9 0.00 0.00 0.00 92 1010.3
20260506104559 23 126 8.0 11.3 0.00 0.00 0.00 92 1010.3
20260506103114 23 119 6.4 9.7 0.00 0.00 0.00 92 1010.5
20260506103003 23 119 6.4 9.7 0.00 0.00 0.00 92 1010.4
20260506101509 23 121 6.4 9.7 0.00 0.00 0.00 92 1010.3
20260506100010 23 123 4.8 9.7 0.00 0.00 0.00 91 1010.3
20260506094519 23 121 6.4 8.0 0.00 0.00 0.00 91 1010.2
20260506093019 23 121 6.4 8.0 0.00 0.00 0.00 92 1010.0
20260506091523 23 122 6.4 9.7 0.00 0.00 0.00 91 1010.1
20260506090044 23 130 9.7 14.5 0.00 0.00 0.00 92 1010.0
20260506084541 23 132 9.7 12.9 0.00 0.00 0.00 92 1010.1
20260506083037 23 117 9.7 14.5 0.00 0.00 0.00 92 1010.2
20260506081550 23 130 9.7 14.5 0.00 0.00 0.00 91 1010.2
20260506073059 24 132 11.3 14.5 0.00 0.00 0.00 91 1010.7
20260506071556 25 131 11.3 17.7 0.00 0.00 0.00 91 1011.0
20260506061535 25 141 11.3 19.3 0.00 0.00 0.00 90 1011.1
20260506044524 25 143 12.9 17.7 0.00 0.00 0.00 90 1011.0
20260506043036 25 139 11.3 19.3 0.00 0.00 0.00 90 1010.9
20260506041535 25 148 12.9 20.9 0.00 0.00 0.00 90 1010.8
20260506040043 24 143 11.3 17.7 0.00 0.00 0.00 90 1010.8
20260506034551 25 146 9.7 16.1 0.00 0.00 0.00 90 1010.7
20260506033057 25 142 14.5 22.5 0.00 0.00 0.00 90 1010.6
20260506031558 25 150 12.9 17.7 0.00 0.00 0.00 89 1010.5
20260506030004 25 162 11.3 17.7 0.00 0.00 0.00 89 1010.5
20260506024525 25 146 11.3 17.7 0.00 0.00 0.00 89 1010.3
20260506023022 25 151 12.9 20.9 0.00 0.00 0.00 88 1010.2
20260506021532 25 135 12.9 22.5 0.00 0.00 0.00 88 1009.9
20260506020037 25 164 12.9 20.9 0.00 0.00 0.00 88 1009.8
20260506014542 25 151 17.7 22.5 0.00 0.00 0.00 88 1009.6
20260506013054 25 135 12.9 22.5 0.00 0.00 0.00 88 1009.3
20260506011604 25 129 11.3 16.1 0.00 0.00 0.00 87 1009.2
20260506010058 25 139 16.1 22.5 0.00 0.00 0.00 87 1008.9
20260506004508 26 142 17.7 24.1 0.00 0.00 0.00 86 1008.7
20260506003009 26 139 14.5 20.9 0.00 0.00 0.00 86 1008.6
20260506001513 26 148 14.5 30.6 0.00 0.00 0.00 85 1008.6
20260506000017 26 160 16.1 32.2 0.00 0.00 0.00 85 1008.7
20260505234522 26 160 12.9 25.7 0.00 0.00 0.00 85 1008.6
20260505233025 26 153 11.3 24.1 0.00 0.00 0.00 85 1008.5
20260505231533 26 155 14.5 24.1 0.00 0.00 0.00 85 1008.6
20260505230037 26 138 11.3 25.7 0.00 0.00 0.00 85 1008.7
20260505224540 27 154 12.9 24.1 0.00 0.00 0.00 84 1008.8
20260505223050 27 194 16.1 25.7 0.00 0.00 0.00 84 1008.8
20260505221557 27 148 14.5 25.7 0.00 0.00 0.00 84 1008.9
20260505220057 27 180 11.3 25.7 0.00 0.00 0.00 84 1009.0
20260505214621 27 179 11.3 24.1 0.00 0.00 0.00 84 1009.1
20260505214501 27 105 9.7 24.1 0.00 0.00 0.00 84 1009.1
20260505213008 27 184 6.4 22.5 0.00 0.00 0.00 84 1009.4
20260505211509 27 192 9.7 29.0 0.00 0.00 0.00 84 1009.6
20260505210013 27 132 9.7 20.9 0.00 0.00 0.00 84 1009.9
20260505204525 27 165 6.4 17.7 0.00 0.00 0.00 84 1009.9
20260505203023 27 273 6.4 30.6 0.00 0.00 0.00 84 1010.2